Fort Rucker / Ozark, AL

1:22 PM CDT on April 23, 2017 (GMT -0500)
Fort Rucker / Ozark

Weather History for KHEY - June, 2014

Change the Weather History Date:

Tuesday, June 10, 2014

  Actual Average (KOZR) Record (KOZR)
Temperature  
Mean Temperature 80 °F -  
Max Temperature 89 °F 84 °F 98 °F (2011)
Min Temperature 71 °F 66 °F 62 °F (2006)
Cooling Degree Days 15    
Growing Degree Days 30 (Base 50)    
Moisture  
Dew Point 71 °F    
Average Humidity 89    
Maximum Humidity 100    
Minimum Humidity 53    
Precipitation  
Precipitation 0.10 in - - ()
Sea Level Pressure  
Sea Level Pressure 29.80 in    
Wind  
Wind Speed 3 mph (SSE)    
Max Wind Speed 10 mph    
Max Gust Speed 20 mph    
Visibility 4 miles    
Events Fog , Rain , Thunderstorm    
Averages and records for this station are not official NWS values.
T = Trace of Precipitation, MM = Missing Value Source: NWS Daily Summary

Daily Weather History Graph

Daily Weather History Graph

Search for Another Location

Airport or City:

Trip Planner

Search our weather history database for the weather conditions in past years. The results will help you decide how hot, cold, wet, or windy it might be!

Date:

Astronomy

Jun. 10, 2014 Rise Set
Actual Time 5:37 AM CDT 7:46 PM CDT
Civil Twilight 5:09 AM CDT 8:14 PM CDT
Nautical Twilight 4:35 AM CDT 8:48 PM CDT
Astronomical Twilight 3:59 AM CDT 9:25 PM CDT
Moon 5:19 PM CDT (6/10) 3:32 AM CDT (6/10)
Length of Visible Light 15h 04m
Length of Day
14h 09m
Waxing Gibbous, 92% of the Moon is Illuminated
Jun 10
Waxing Gibbous
Jun 12
Full
Jun 19
Last Quarter
Jun 27
New
Jul 5
First Quarter

Hourly Weather History & Observations

Time (CDT) Temp. Heat Index Dew Point Humidity Pressure Visibility Wind Dir Wind Speed Gust Speed Precip Events Conditions
12:53 AM 73.9 °F - 72.0 °F 93% 29.63 in 8.0 mi SSE 3.5 mph - N/A   Clear
1:53 AM 73.0 °F - 72.0 °F 96% 29.62 in 6.0 mi Calm Calm - N/A   Clear
2:18 AM 72.0 °F - 71.1 °F 97% 29.94 in 0.5 mi SSE 3.5 mph - N/A Fog Fog
2:32 AM 72.0 °F - 71.1 °F 97% 29.93 in 1.2 mi SE 4.6 mph - N/A   Scattered Clouds
2:35 AM 72.0 °F - 71.1 °F 97% 29.93 in 3.0 mi SSE 4.6 mph - N/A   Scattered Clouds
2:53 AM 72.0 °F - 71.1 °F 97% 29.60 in 4.0 mi SSE 4.6 mph - N/A   Partly Cloudy
3:14 AM 72.0 °F - 72.0 °F 100% 29.93 in 4.0 mi Calm Calm - N/A   Mostly Cloudy
3:34 AM 72.0 °F - 72.0 °F 100% 29.93 in 2.0 mi Calm Calm - N/A   Overcast
3:52 AM 73.0 °F - 72.0 °F 96% 29.60 in 0.8 mi Calm Calm - N/A   Mist
4:53 AM 73.0 °F - 72.0 °F 96% 29.61 in 0.8 mi Calm Calm - N/A   Mist
5:03 AM 73.0 °F - 72.0 °F 96% 29.94 in 1.0 mi Calm Calm - N/A   Mist
5:26 AM 73.0 °F - 72.0 °F 96% 29.94 in 3.0 mi Calm Calm - N/A   Overcast
5:50 AM 73.4 °F - 71.6 °F 94% 29.95 in 1.8 mi South 3.5 mph - N/A   Overcast
5:53 AM 73.0 °F - 72.0 °F 96% 29.62 in 1.0 mi Calm Calm - N/A   Overcast
6:01 AM 73.0 °F - 72.0 °F 96% 29.95 in 0.2 mi Calm Calm - N/A Fog Fog
6:53 AM 73.0 °F - 73.0 °F 100% 29.64 in 0.2 mi Calm Calm - N/A Fog Fog
7:40 AM 73.9 °F - 73.9 °F 100% 29.98 in 1.2 mi SSE 4.6 mph - N/A   Overcast
7:53 AM 73.9 °F - 73.0 °F 97% 29.65 in 2.5 mi SSE 4.6 mph - N/A   Overcast
8:04 AM 73.9 °F - 73.9 °F 100% 29.99 in 3.0 mi South 4.6 mph - N/A   Overcast
8:27 AM 75.0 °F - 73.0 °F 94% 29.98 in 7.0 mi Variable 4.6 mph - N/A   Overcast
8:53 AM 77.0 °F - 73.0 °F 88% 29.65 in 10.0 mi South 9.2 mph - N/A   Overcast
9:49 AM 82.4 °F 87.2 °F 71.6 °F 70% 29.97 in 10.0 mi South 8.1 mph - N/A   Mostly Cloudy
10:53 AM 84.9 °F 90.1 °F 71.1 °F 63% 29.64 in 10.0 mi South 10.4 mph 18.4 mph N/A   Scattered Clouds
11:53 AM 86.0 °F 92.2 °F 72.0 °F 63% 29.62 in 10.0 mi SSW 6.9 mph - N/A   Scattered Clouds
12:30 PM 87.1 °F 93.6 °F 72.0 °F 61% 29.95 in 10.0 mi Variable 5.8 mph - N/A Thunderstorm Thunderstorm
12:50 PM 87.8 °F 93.8 °F 71.6 °F 58% 29.94 in 10.0 mi SSW 6.9 mph - N/A   Mostly Cloudy
12:53 PM 88.0 °F 94.7 °F 72.0 °F 59% 29.61 in 10.0 mi South 9.2 mph - N/A   Mostly Cloudy
1:53 PM 89.1 °F 94.1 °F 70.0 °F 53% 29.59 in 10.0 mi SW 9.2 mph 19.6 mph N/A   Partly Cloudy
6:32 PM 73.9 °F - 68.0 °F 82% 29.94 in 1.5 mi Variable 3.5 mph - 0.06 in Rain Heavy Rain
6:49 PM 73.4 °F - 69.8 °F 88% 29.93 in 10.0 mi NNW 5.8 mph - 0.10 in   Mostly Cloudy
6:53 PM 73.0 °F - 70.0 °F 90% 29.60 in 10.0 mi Variable 3.5 mph - 0.10 in   Scattered Clouds
7:53 PM 72.0 °F - 70.0 °F 93% 29.60 in 10.0 mi Calm Calm - N/A   Partly Cloudy
8:53 PM 71.1 °F - 70.0 °F 96% 29.61 in 6.0 mi Calm Calm - N/A   Clear
9:23 PM 71.1 °F - 70.0 °F 96% 29.95 in 2.5 mi Calm Calm - N/A   Clear
9:51 PM 71.6 °F - 69.8 °F 94% 29.95 in 1.5 mi Calm Calm - N/A   Clear
9:53 PM 71.1 °F - 69.1 °F 93% 29.62 in 1.2 mi South 3.5 mph - N/A   Clear
10:28 PM 71.1 °F - 69.1 °F 93% 29.95 in 2.0 mi Calm Calm - N/A   Clear
10:41 PM 71.1 °F - 69.1 °F 93% 29.95 in 1.2 mi Calm Calm - N/A   Clear
10:53 PM 71.1 °F - 69.1 °F 93% 29.63 in 2.0 mi Calm Calm - N/A   Clear
11:00 PM 71.1 °F - 70.0 °F 96% 29.96 in 1.5 mi Calm Calm - N/A   Partly Cloudy
11:10 PM 71.1 °F - 69.1 °F 93% 29.95 in 2.0 mi ESE 3.5 mph - N/A   Scattered Clouds
11:41 PM 71.1 °F - 69.1 °F 93% 29.95 in 6.0 mi East 4.6 mph - N/A   Partly Cloudy
11:49 PM 71.1 °F - 69.1 °F 93% 29.63 in 7.0 mi East 3.5 mph - N/A Thunderstorm Thunderstorm